Location: Fleischmann Planetarium and Science Center
(39.5456°N, 119.8190°W)
Time: 22:09:35
(UTC-08:00)

Daily predictions for brighter satellites

Satellite Brightness Start Highest point End
(mag) Time Altitude Azimuth Time Altitude Azimuth Time Altitude Azimuth
CENTAUR R/B 3.2 17:59:23 10° NW 18:07:21 90° WNW 18:15:46 10° SSE
Cosmos 1633 4.3 18:09:34 10° ESE 18:11:28 14° E 18:13:22 10° NE
SJ-6B 3.6 18:10:44 10° SE 18:14:19 32° ENE 18:17:52 10° N
Cosmos 44 3.1 18:10:19 10° NNW 18:14:42 56° NE 18:18:56 10° SE
Meteor 1-18 Rocket 4.3 18:10:27 10° N 18:15:55 57° ENE 18:21:25 10° SSE
COSMO-SKYMED 1 2.8 18:11:42 10° N 18:16:03 79° WNW 18:20:23 10° SSW
Cosmos 1484 Rocket 3.8 18:12:56 10° S 18:16:50 54° W 18:20:43 10° NNW
Okean 2 Rocket 3.1 18:13:40 10° S 18:18:09 85° E 18:22:36 10° N
ASTRO F (AKARI) 4.4 18:15:26 10° NNE 18:19:04 73° ESE 18:22:29 10° S
BREEZE-M DEB (TANK) 3.7 18:14:46 10° WNW 18:25:22 69° NNE 18:28:34 10° ESE
Cosmos 1709 Rocket 4.4 18:20:42 10° SSE 18:26:29 41° E 18:32:13 10° NNE
SL-16 R/B 2.2 18:22:20 10° NNW 18:27:58 62° ENE 18:33:35 10° SE
CZ-3C R/B 4.0 18:24:06 10° SW 18:28:43 13° SSW 18:31:31 10° S
Cosmos 1340 3.6 18:30:11 10° NNE 18:33:24 26° ENE 18:36:36 10° SE
Cosmos 2151 Rocket 3.6 18:32:10 10° S 18:36:35 62° E 18:41:03 10° NNE
Meteor 1-20 Rocket 4.3 18:30:49 10° S 18:36:37 81° E 18:42:30 10° NNE
Cosmos 1461 3.1 18:33:19 10° NNW 18:37:12 46° NE 18:41:09 10° SE
Cosmos 1536 4.4 18:35:24 10° SE 18:37:17 16° E 18:37:17 16° E
Cosmos 1818 3.6 18:33:55 10° SSW 18:39:14 59° ESE 18:44:36 10° NE
Meteor 1-28 Rocket 4.4 18:36:30 10° N 18:40:10 47° WNW 18:43:49 10° SSW
BREEZE-M DEB (TANK) 3.8 18:36:39 10° SSW 18:40:50 25° SSE 18:42:08 18° ESE
FREGAT/IRIS 2.5 18:38:40 10° SSE 18:41:43 71° ENE 18:44:48 10° N
Okean 1 3.3 18:40:49 10° N 18:44:51 67° E 18:48:54 10° SSE
Okean 1 Rocket 3.9 18:42:12 10° SSE 18:46:00 28° E 18:49:49 10° NNE
Cosmos 2322 Rocket 2.2 18:40:57 10° NNW 18:46:35 90° NE 18:52:12 10° SSE
Cosmos 2292 Rocket 4.1 18:43:01 10° S 18:47:40 69° E 18:54:01 10° N
Helios 1A 4.2 18:48:25 21° E 18:49:05 22° ENE 18:52:16 10° NNE
CZ-2D R/B 4.3 18:48:12 22° E 18:49:10 24° ENE 18:52:16 10° NNE
DELTA 2 R/B (1) 3.6 18:49:13 10° W 18:54:51 88° S 18:58:28 23° E
Cosmos 2322 4.2 18:52:16 10° N 18:57:35 38° ENE 19:00:58 20° ESE
Cosmos 407 Rocket 3.7 18:53:12 10° SSW 18:58:25 74° WNW 19:03:44 10° NNE
ALOS 2.2 18:53:50 10° SSE 18:58:27 70° ENE 19:03:07 10° N
Cosmos 676 Rocket 3.9 18:54:15 10° SSW 18:59:25 79° ESE 19:04:38 10° NNE
H-2A R/B 3.0 18:57:12 13° SE 19:00:11 42° ENE 19:03:44 10° N
Okean 1-7 Rocket 4.4 18:57:49 10° NNE 19:01:48 29° ENE 19:02:21 28° E
FENGYUN 3A 3.6 19:00:31 10° SSE 19:05:55 80° ENE 19:11:22 10° N
COSMOS 2428 3.7 19:04:40 10° N 19:09:24 26° NE 19:09:59 26° ENE
Cosmos 1812 4.5 19:05:54 10° NNW 19:09:25 34° W 19:12:55 10° SSW
Meteor 2-4 Rocket 4.0 19:04:28 10° N 19:09:46 42° ENE 19:13:14 19° SE
Helios 1B rocket 3.1 19:15:08 34° SE 19:15:08 34° SE 19:18:07 10° SSE
Cosmos 1238 Rocket 1.8 19:11:20 10° N 19:14:23 76° E 19:14:27 75° ESE
Meteor 1-11 Rocket 3.7 19:13:06 10° S 19:18:50 76° E 19:24:43 10° NNE
Cosmos 1025 Rocket 4.3 19:15:37 10° NNE 19:17:57 25° NE 19:17:57 25° NE
SAR-Lupe-4 3.7 19:20:06 52° NE 19:20:06 52° NE 19:23:14 10° N
Cosmos 2237 Rocket 4.3 19:18:54 10° NNE 19:19:50 11° NNE 19:19:50 11° NNE
Cosmos 1536 Rocket 4.4 19:18:29 10° NNW 19:22:50 53° W 19:27:12 10° S
ATLAS CENTAUR R/B 4.1 19:21:52 10° S 19:23:11 13° SSE 19:23:11 13° SSE
Cosmos 1140 Rocket 3.3 19:20:57 10° SSW 19:26:04 83° ESE 19:31:15 10° NNE
Tiangong 2 1.5 19:24:00 10° WNW 19:26:41 58° WSW 19:26:41 58° WSW
Resurs 01 Rocket 1.9 19:25:52 10° S 19:30:15 68° W 19:34:39 10° NNW
Spot 2 Rocket 3.7 19:27:33 10° S 19:32:34 73° WSW 19:37:38 10° NNW
Cosmos 1602 4.4 19:29:18 10° SSW 19:33:04 53° W 19:36:54 10° N
Cosmos 2219 3.4 19:27:57 10° S 19:33:25 47° ESE 19:33:37 46° E
Cosmos 2360 Rocket 2.1 19:33:44 10° NNW 19:39:25 87° WSW 19:42:30 28° SSE
Cosmos 614 Rocket 3.8 19:35:26 10° SSW 19:40:32 84° ESE 19:43:40 24° NNE
Cosmos 1850 Rocket 3.9 19:35:45 10° S 19:41:00 71° ESE 19:43:04 37° NNE
Cosmos 2219 Rocket 3.6 19:38:18 10° N 19:41:19 23° NNE 19:41:19 23° NNE
Cosmos 1633 4.4 19:42:49 10° SW 19:46:08 31° WNW 19:49:29 10° NNW
Envisat 3.9 19:50:34 34° NNE 19:50:34 34° NNE 19:53:40 10° N
SL-08 ROCKET BODY 4.4 19:43:49 10° S 19:49:58 89° W 19:56:13 10° N
Cosmos 2327 Rocket 4.3 19:45:03 10° S 19:51:14 79° E 19:57:33 10° N
USA 229 DEB 4.0 19:55:34 10° NNW 20:02:29 50° NE 20:02:29 50° NE
USA 229 4.0 19:55:41 10° NNW 20:02:34 50° NE 20:02:34 50° NE
Cosmos 2333 Rocket 3.7 19:59:55 10° N 20:02:36 23° NNE 20:02:36 23° NNE
Cosmos 2184 Rocket 4.2 20:03:44 10° SSW 20:10:03 72° W 20:16:20 10° N
Cosmos 2074 Rocket 4.2 20:04:09 10° SSW 20:10:21 69° W 20:16:37 10° N
Cosmos 2285 Rocket 4.4 20:30:27 10° NNW 20:35:37 59° NW 20:35:37 59° NW
COSMOS 2428 4.1 20:48:27 10° NW 20:52:04 35° WNW 20:52:04 35° WNW
Cosmos 2237 Rocket 4.4 21:00:24 10° NNW 21:01:41 17° NNW 21:01:41 17° NNW
